Погода в Кипреве

Россия / Владимирская область     56°14′14″N   38°59′31″E
темп.,
°C
ветер,
м/с
пор.,
м/с
влажн.,
%
обл.,
%
осадки,
мм/ч
давл.,
гПа
погр.,
м
19 мая, ср
ср1900:00+19вюв517740 0.0 1008483
03:00+17вюв417704 0.0 1007505
06:00+17вюв515694 0.0 1008505
09:00+21юв5105783 0.0 1008695
12:00+25юв510465 0.0 10081419
15:00+26юв515439 0.0 10072614
18:00+20ююв410813 1.6 1008682
21:00+17юв23935 1.8 100948
20 мая, чт
чт2000:00+15вюв249518 0.0 100883
03:00+15вюв2697100 0.4 1007135
06:00+14в3894100 2.9 1007253
09:00+17юв598635 3.0 1007861
12:00+18ююв596771 0.9 10071279
15:00+20ююв695088 0.9 10062079
18:00+17ююв51072100 0.4 10061085
21:00+13ююв3109295 0.6 1006475
21 мая, пт
пт2100:00+11ю389845 0.0 1005275
03:00+10ююв259898 0.0 1005117
06:00+11ююз369564 0.1 1005451
09:00+12юз3583100 0.2 1007673
12:00+12з4687100 0.2 1009886
15:00+16зсз6862100 0.3 10121660
18:00+16з285711 0.0 10131718
21:00+11зюз247598 0.0 101558
22 мая, сб
сб2200:00+9юз247686 0.0 101771
03:00+7з22855 0.0 101826
06:00+9з12762 0.0 101973
09:00+16ююз12520 0.0 1019733
12:00+18ююз35405 0.0 10182011
15:00+20юз35385 0.0 10172169
18:00+18юз355337 0.0 1017781
21:00+12ю388921 0.0 1017139
23 мая, вс
вс2300:00+10ююз239613 0.0 101854
03:00+9вюв229423 0.0 101716
06:00+11в2588100 0.0 1016136
09:00+16вюв4764100 0.0 1014738
12:00+19вюв4660100 0.0 10121087
15:00+17юв4991100 1.1 1009771
18:00+16юв51197100 4.3 1006666
21:00+15юв3109986 5.4 1003398